Scottsdale, AZ

6:34 AM MST on November 24, 2017 (GMT -0700)
Scottsdale

Weather History for KSDL - May, 2014

Change the Weather History Date:

Saturday, May 10, 2014

  Actual Average Record
Temperature  
Mean Temperature 76 °F -  
Max Temperature 90 °F 88 °F 100 °F (2001)
Min Temperature 63 °F 64 °F 53 °F (2003)
Cooling Degree Days 12    
Growing Degree Days 26 (Base 50)    
Moisture  
Dew Point 35 °F    
Average Humidity 23    
Maximum Humidity 45    
Minimum Humidity 13    
Precipitation  
Precipitation 0.00 in - - ()
Sea Level Pressure  
Sea Level Pressure 29.68 in    
Wind  
Wind Speed 4 mph (SSW)    
Max Wind Speed 16 mph    
Max Gust Speed 26 mph    
Visibility 10 miles    
Events      
Averages and records for this station are not official NWS values.
T = Trace of Precipitation, MM = Missing Value Source: NWS Daily Summary

Daily Weather History Graph

Daily Weather History Graph

Search for Another Location

Airport or City:

Trip Planner

Search our weather history database for the weather conditions in past years. The results will help you decide how hot, cold, wet, or windy it might be!

Date:

Astronomy

May. 10, 2014 Rise Set
Actual Time 5:30 AM MST 7:17 PM MST
Civil Twilight 5:03 AM MST 7:44 PM MST
Nautical Twilight 4:30 AM MST 8:17 PM MST
Astronomical Twilight 3:56 AM MST 8:52 PM MST
Moon 3:28 PM MST (5/10) 2:53 AM MST (5/10)
Length of Visible Light 14h 41m
Length of Day
13h 46m
Waxing Gibbous, 83% of the Moon is Illuminated
May 10
Waxing Gibbous
May 14
Full
May 21
Last Quarter
May 28
New
Jun 5
First Quarter

Hourly Weather History & Observations

Time (MST) Temp. Dew Point Humidity Pressure Visibility Wind Dir Wind Speed Gust Speed Precip Events Conditions
12:53 AM 70.0 °F 39.9 °F 33% 29.79 in 10.0 mi Calm Calm - N/A   Clear
1:53 AM 66.0 °F 37.9 °F 36% 29.79 in 10.0 mi Calm Calm - N/A   Clear
2:53 AM 66.9 °F 37.0 °F 33% 29.78 in 10.0 mi Calm Calm - N/A   Clear
4:53 AM 63.0 °F 39.9 °F 43% 29.78 in 10.0 mi Calm Calm - N/A   Clear
5:53 AM 63.0 °F 41.0 °F 45% 29.78 in 10.0 mi Calm Calm - N/A   Clear
6:53 AM 69.1 °F 39.0 °F 33% 29.80 in 10.0 mi Calm Calm - N/A   Clear
7:53 AM 72.0 °F 36.0 °F 27% 29.80 in 10.0 mi SSE 4.6 mph - N/A   Clear
8:53 AM 77.0 °F 32.0 °F 19% 29.79 in 10.0 mi SSE 6.9 mph - N/A   Clear
9:53 AM 80.1 °F 34.0 °F 19% 29.77 in 10.0 mi SSE 5.8 mph - N/A   Clear
10:53 AM 82.0 °F 35.1 °F 18% 29.75 in 10.0 mi Variable 4.6 mph - N/A   Clear
11:53 AM 84.0 °F 36.0 °F 18% 29.73 in 10.0 mi SE 5.8 mph - N/A   Clear
12:53 PM 86.0 °F 35.1 °F 16% 29.71 in 10.0 mi Variable 5.8 mph - N/A   Clear
1:53 PM 88.0 °F 34.0 °F 15% 29.68 in 10.0 mi SW 12.7 mph 18.4 mph N/A   Clear
2:53 PM 89.1 °F 32.0 °F 13% 29.64 in 10.0 mi South 6.9 mph - N/A   Clear
3:53 PM 90.0 °F 32.0 °F 13% 29.61 in 10.0 mi WSW 16.1 mph 26.5 mph N/A   Clear
4:53 PM 90.0 °F 34.0 °F 14% 29.59 in 10.0 mi SW 13.8 mph 18.4 mph N/A   Clear
5:53 PM 88.0 °F 32.0 °F 14% 29.57 in 10.0 mi West 15.0 mph 24.2 mph N/A   Clear
6:53 PM 87.1 °F 32.0 °F 14% 29.56 in 10.0 mi WSW 12.7 mph - N/A   Clear
7:53 PM 84.9 °F 32.0 °F 15% 29.56 in 10.0 mi WSW 9.2 mph - N/A   Clear
8:53 PM 82.0 °F 35.1 °F 18% 29.55 in 10.0 mi WSW 12.7 mph - N/A   Clear
9:53 PM 80.1 °F 36.0 °F 20% 29.56 in 10.0 mi South 3.5 mph - N/A   Clear
10:53 PM 80.1 °F 37.0 °F 21% 29.55 in 10.0 mi SSW 5.8 mph - N/A   Clear
11:53 PM 79.0 °F 37.0 °F 22% 29.58 in 10.0 mi WSW 10.4 mph 19.6 mph N/A   Clear